This demonstration page uses our WeatherBlox Daily Observations layout. Learn more.

Left ArrowRight Arrow

Hourly Observations for October 31, 2019

Temp ( °F °C ) Dew Point ( °F °C ) Humidity (%) Winds ( mph kmh ) Pressure ( in mb ) Visibility ( mi km ) Precip ( " mm )
12:08 am 00:08 Cloudy with Light Rain 72 22.2 70 21.1 94 94 S 7 11 29.94 1014 9 14 0.01 0.25
12:10 am 00:10 Cloudy with Light Rain 72 22.2 70 21.1 94 94 S 7 11 29.94 1014 9 14 0.01 0.25
12:16 am 00:16 Cloudy with Light Rain 72 22.2 70 21.1 94 94 S 6 9 29.95 1014 10 16 0.01 0.25
12:24 am 00:24 Cloudy 72 22.2 70 21.1 94 94 S 6 9 29.94 1014 10 16 0.01 0.25
12:34 am 00:34 Cloudy 72 22.2 70 21.1 94 94 S 7 11 29.94 1014 10 16 0.01 0.25
12:53 am 00:53 Cloudy 72 22.2 70 21.1 94 94 S 6 9 29.94 1014 10 16 0.01 0.25
1:00 am 01:00 Mostly Cloudy 72 22.2 70 21.1 94 94 S 6 9 29.93 1014 10 16 0.00 0.00
1:53 am 01:53 Cloudy 72 22.2 70 21.1 94 94 S 3 6 29.93 1014 10 16 0.00 0.00
2:35 am 02:35 Cloudy 73 22.8 70 21.1 90 90 S 5 7 29.91 1013 10 16 0.00 0.00
2:53 am 02:53 Cloudy 73 22.8 70 21.1 90 90 S 6 9 29.91 1013 10 16 0.00 0.00
3:01 am 03:01 Cloudy 73 22.8 70 21.1 90 90 SW 3 6 29.90 1013 10 16 0.00 0.00
3:53 am 03:53 Cloudy 72 22.2 70 21.1 94 94 SSE 6 9 29.88 1012 10 16 0.00 0.00
4:05 am 04:05 Cloudy 73 22.8 70 21.1 90 90 S 6 9 29.87 1012 10 16 0.00 0.00
4:38 am 04:38 Cloudy 73 22.8 70 21.1 90 90 SSE 6 9 29.86 1011 10 16 0.00 0.00
4:53 am 04:53 Cloudy with Light Rain 72 22.2 70 21.1 94 94 S 9 15 29.87 1012 3 5 0.01 0.25
5:53 am 05:53 Cloudy 72 22.2 69 20.6 91 91 SSW 6 9 29.88 1012 10 16 0.01 0.25
6:07 am 06:07 Cloudy 72 22.2 69 20.6 91 91 SSW 10 17 29.87 1012 10 16 0.00 0.00
6:53 am 06:53 Cloudy with Light Rain 72 22.2 68 20 87 87 S 8 13 29.87 1011 10 16 0.00 0.00
7:07 am 07:07 Cloudy 72 22.2 68 20 87 87 S 9 15 29.86 1011 10 16 0.00 0.00
7:20 am 07:20 Cloudy 72 22.2 69 20.6 91 91 S 8 13 29.86 1011 10 16 0.00 0.00
7:27 am 07:27 Cloudy 72 22.2 69 20.6 91 91 S 8 13 29.86 1011 10 16 0.00 0.00
7:53 am 07:53 Cloudy 72 22.2 69 20.6 91 91 S 13 20 29.87 1012 10 16 0.00 0.00
8:53 am 08:53 Cloudy 73 22.8 69 20.6 87 87 SSW 8 13 29.86 1011 10 16 0.00 0.00
9:48 am 09:48 Cloudy with Light Rain 72 22 70 21 94 94 S 7 11 29.87 1012 9 14 0.01 0.25
9:53 am 09:53 Cloudy with Light Rain 72 22.2 70 21.1 94 94 S 8 13 29.87 1012 10 16 0.01 0.25
10:01 am 10:01 Cloudy with Light Rain 72 22.2 70 21.1 94 94 S 8 13 29.86 1011 9 14 0.01 0.25
10:19 am 10:19 Cloudy 73 22.8 70 21.1 90 90 S 14 22 29.86 1011 10 16 0.01 0.25
10:53 am 10:53 Cloudy 74 23.3 69 20.6 85 85 S 10 17 29.86 1011 10 16 0.01 0.25
11:32 am 11:32 Cloudy with Light Rain 75 23.9 69 20.6 82 82 SSW 12 19 29.84 1010 10 16 0.00 0.00
11:53 am 11:53 Partly Cloudy with Light Rain 75 23.9 69 20.6 82 82 SSW 10 17 29.84 1010 10 16 0.00 0.00
12:15 pm 12:15 Cloudy with Light Rain 75 23.9 69 20.6 82 82 SSW 15 24 29.83 1010 8 13 0.00 0.00
12:55 pm 12:55 Cloudy with Heavy Rain 64 17.8 60 15.6 87 87 W 13 20 29.90 1012 3 4 0.03 0.76
1:03 pm 13:03 Cloudy with Heavy Rain 62 16.7 59 15 90 90 W 13 20 29.89 1012 1 2 0.16 4.06
1:10 pm 13:10 Cloudy with Rain 61 16.1 59 15 93 93 WSW 9 15 29.91 1013 2 3 0.20 5.08
1:18 pm 13:18 Cloudy with Heavy Rain 60 15.6 58 14.4 93 93 WSW 12 19 29.95 1014 1 2 0.34 8.64
1:27 pm 13:27 Cloudy with Heavy Rain 59 15 57 13.9 93 93 WNW 13 20 29.92 1013 1 2 0.42 10.67
1:32 pm 13:32 Cloudy with Rain 59 15 57 13.9 93 93 W 10 17 29.92 1013 3 5 0.43 10.92
1:39 pm 13:39 Cloudy with Rain 59 15 56 13.3 90 90 WSW 7 11 29.91 1013 6 10 0.45 11.43
1:53 pm 13:53 Cloudy with Light Rain 58 14.4 56 13.3 93 93 WSW 7 11 29.89 1012 10 16 0.45 11.43
2:24 pm 14:24 Cloudy with Light Rain 57 13.9 53 11.7 87 87 W 12 19 29.94 1014 10 16 0.00 0.00
2:33 pm 14:33 Cloudy with Light Rain 56 13.3 52 11.1 87 87 W 14 22 29.95 1014 10 16 0.00 0.00
2:53 pm 14:53 Cloudy with Light Rain 55 12.8 51 10.6 87 87 W 13 20 29.93 1014 10 16 0.02 0.51
3:23 pm 15:23 Mostly Cloudy with Light Rain 53 11.7 50 10 89 89 W 12 19 29.95 1014 10 16 0.01 0.25
3:53 pm 15:53 Cloudy 52 11.1 47 8.3 83 83 W 15 24 29.96 1015 10 16 0.01 0.25
4:06 pm 16:06 Cloudy 52 11.1 47 8.3 83 83 WNW 15 24 29.99 1015 10 16 0.00 0.00
4:16 pm 16:16 Cloudy 52 11.1 47 8.3 83 83 WNW 17 28 30.00 1016 10 16 0.00 0.00
4:53 pm 16:53 Cloudy 50 10 45 7.2 83 83 NW 16 26 30.01 1016 10 16 0.00 0.00
5:30 pm 17:30 Cloudy 48 8.9 42 5.6 80 80 WNW 18 30 30.07 1018 10 16 0.00 0.00
5:37 pm 17:37 Cloudy 48 8.9 42 5.6 80 80 WNW 13 20 30.08 1019 10 16 0.00 0.00
5:53 pm 17:53 Cloudy 48 8.9 42 5.6 80 80 WNW 13 20 30.07 1018 10 16 0.00 0.00
6:53 pm 18:53 Cloudy 45 7.2 37 2.8 74 74 W 13 20 30.11 1020 10 16 0.00 0.00
7:38 pm 19:38 Partly Cloudy 44 6.7 36 2.2 73 73 WNW 9 15 30.15 1021 10 16 0.00 0.00
8:53 pm 20:53 Mostly Cloudy 43 6.1 36 2.2 76 76 WNW 8 13 30.14 1021 10 16 0.00 0.00
9:45 pm 21:45 Partly Cloudy 41 5 32 0 70 70 NW 17 28 30.21 1023 10 16 0.00 0.00
9:53 pm 21:53 Mostly Cloudy 41 5 32 0 70 70 NW 15 24 30.17 1022 10 16 0.00 0.00
10:30 pm 22:30 Partly Cloudy 39 3.9 30 -1.1 70 70 NW 17 28 30.22 1023 10 16 0.00 0.00
10:53 pm 22:53 Partly Cloudy 39 3.9 29 -1.7 67 67 NW 17 28 30.19 1023 10 16 0.00 0.00
11:23 pm 23:23 Mostly Cloudy 39 3.9 28 -2.2 65 65 NW 15 24 30.24 1024 10 16 0.00 0.00

Powered by AerisWeather